Regional Weather Roundup
Issued by NWS

Home | Current Version | Previous Version | Text Only | Print | Product List | Glossary On
Versions: 1 2 3 4 5 6 7 8 9 10 11 12 13 14 15 16 17 18 19 20 21 22 23 24 25 26 27 28
000
ASUS45 KCYS 290210
RWRWY

WYOMING REGIONAL WEATHER ROUNDUP
NATIONAL WEATHER SERVICE CHEYENNE WY
800 PM MDT THU JUL 28 2016

NOTE:  "FAIR" INDICATES FEW OR NO CLOUDS BELOW 12,000 FEET
WITH NO SIGNIFICANT WEATHER AND/OR OBSTRUCTIONS TO VISIBILITY.

WYZ001-290300-
YELLOWSTONE NATIONAL PARK

CITY           SKY/WX    TMP DP  RH WIND       PRES   REMARKS
LK YELLOWSTONE   N/A     71  30  21 NW6       30.35S
W YELLOWSTONE  NOT AVBL

$$
WYZ002>013-054>058-071-098>099-290300-
NORTHERN WYOMING

CITY           SKY/WX    TMP DP  RH WIND       PRES   REMARKS
JACKSON        CLEAR     82  32  16 W6        30.21
CODY           FAIR      73  48  40 N10       30.20S
GREYBULL       FAIR      83  43  24 NW16      30.09R
WORLAND        FAIR      81  46  29 N7        30.10S
SHERIDAN       FAIR      74  53  48 NE8       30.15R
BUFFALO        FAIR      73  47  39 NW10      30.21S
GILLETTE       FAIR      67  53  61 E14       30.18R
HULETT         FAIR      68  57  68 E6        30.18F
NEWCASTLE      FAIR      72  50  46 N7        30.16S

$$
WYZ014>020-022>026-101>103-290300-
CENTRAL WYOMING

CITY           SKY/WX    TMP DP  RH WIND       PRES   REMARKS
BIG PINEY      FAIR      79  29  16 NW14      30.25S
PINEDALE       FAIR      73  28  19 NW10      30.26R
DUBOIS         FAIR      72  41  33 SE20G28   30.27R
LANDER         FAIR      76  44  32 N9        30.17R
RIVERTON       FAIR      78  40  25 N17G24    30.18R
CASPER         FAIR      76  46  34 NE12      30.18R
DOUGLAS          N/A    N/A N/A N/A MISG      30.19R

$$
WYZ021-027>030-104>119-290300-
SOUTHERN WYOMING

CITY           SKY/WX    TMP DP  RH WIND       PRES   REMARKS
EVANSTON       FAIR      81  29  15 NW9       30.27S
KEMMERER         N/A     77  21  12 NW14      30.28S
FORT BRIDGER   FAIR      83  24  11 NW16G23   30.28S
ROCK SPRINGS   FAIR      83  19   9 W14       30.20R
DIXON          FAIR      85  22  10 NW9       30.18R
RAWLINS        FAIR      77  42  28 NE18      30.22R
SARATOGA       FAIR      75  41  29 E6        30.22S
LARAMIE        FAIR      65  51  60 SE15      30.30R
CHEYENNE       FAIR      66  55  67 SE8       30.26R
TORRINGTON     FAIR      74  55  51 E7        30.15R
PINE BLUFFS    FAIR      70  54  56 E6        30.22S

$$




USA.gov is the U.S. government's official web portal to all federal, state and local government web resources and services.